www.pogodaiklimat.ru

Архив погоды в Таразе (Жамбылская область, Казахстан)

Время
(UTC), дата
03 16.06
06 16.06
09 16.06
12 16.06
15 16.06
18 16.06
21 16.06
00 17.06
03 17.06
06 17.06
09 17.06
12 17.06
15 17.06
18 17.06
21 17.06
00 18.06
03 18.06
06 18.06
09 18.06
12 18.06
15 18.06
18 18.06
21 18.06
00 19.06
03 19.06
06 19.06
09 19.06
12 19.06
15 19.06
18 19.06
21 19.06
00 20.06
03 20.06
06 20.06
09 20.06
12 20.06
15 20.06
18 20.06
21 20.06
00 21.06
03 21.06
06 21.06
09 21.06
12 21.06
15 21.06
18 21.06
21 21.06
00 22.06
03 22.06
06 22.06
09 22.06
12 22.06
15 22.06
18 22.06
21 22.06
00 23.06
Ветер
(напр.,м/с)
Видим. Явления Облачность Т
(С)
Тd
(С)
f
(%)
Тe
(С)
Тes
(С)
Комфортность P
(гПа)
Po
(гПа)
Тmin
(С)
Tmax
(С)
R
(мм)
R24
(мм)
S
(см)
штиль 0 50 км ясно +24.8 +10.0 39 +26 +35 жарко 1007.0 935.6
В 9 50 км 3/0
[Ci fib]
+30.2 +6.0 22 +29 +31 жарко 1005.5 935.3 +14.9
СЗ 3 50 км 3/0
[Ci fib]
+32.4 +6.2 19 +30 +44 жарко 1003.9 934.3
СВ 3 50 км 10/0
[Ci fib]
+32.6 +7.0 20 +31 +34 жарко 1003.4 933.9
штиль 0 50 км 8/0
[Ac lent Ci fib]
+27.7 +11.0 35 +28 +28 жарко 1004.8 934.2 +33.9
С 2 10 км 8/0
[Ac lent Ci fib]
+23.3 +8.5 39 +25 +25 комфорт 1005.9 934.2 +33.9
штиль 0 10 км ясно +19.5 +10.6 56 +20 +20 тепло 1006.6 934.0
штиль 0 50 км 3/0
[Ac lent]
+16.0 +10.3 69 +16 +16 тепло 1008.8 935.2
штиль 0 50 км ясно +25.1 +10.9 41 +26 +36 жарко 1007.6 936.2
С 3 50 км ясно +31.0 +10.2 28 +31 +46 жарко 1005.9 936.0 +16.0
С 5 50 км 3/3 1000 м
[Sc diur, vesp]
+33.3 +7.0 20 +32 +38 жарко 1004.6 935.2
СВ 4 50 км 6/6 1000 м
[Sc diur, vesp]
+33.5 +7.1 19 +32 +33 жарко 1004.2 934.9
штиль 0 20 км 8/4 1000 м
[Sc diur, vesp Ac lent]
+29.8 +10.0 29 +30 +30 жарко 1005.8 935.6 +34.8
СЗ 3 10 км ясно +25.5 +9.3 36 +26 +26 жарко 1007.7 936.4 +34.8
штиль 0 10 км ясно +22.0 +9.6 45 +24 +24 комфорт 1008.4 936.3
штиль 0 50 км 8/8 600 м
[Cb cap]
+20.3 +10.2 52 +22 +22 комфорт 1009.3 936.7
штиль 0 50 км 8/8 600 м
[Cb cap]
+25.3 +11.2 41 +27 +28 жарко 1008.4 937.1
штиль 0 50 км 4/4 1000 м
[Sc diur, vesp]
+31.6 +10.9 28 +32 +46 жарко 1006.8 937.0 +19.5
СЗ 3 50 км 6/6 1000 м
[Sc diur, vesp]
+33.8 +10.2 24 +33 +39 жарко 1005.2 935.9
З 4 50 км гроза без осадков 9/9 600 м
[Cb cap]
+27.2 +12.4 40 +29 +29 жарко 1004.9 936.1
З 2 10 км слаб. ливневой дождь {гроза} 10/6 600 м
[Cb cap Ac lent]
+26.3 +13.6 45 +28 +28 жарко 1008.1 937.0 +34.6
ЮЗ 1 10 км {гроза, ливн. дождь} 8/6 600 м
[Cb cap Ac lent]
+23.4 +12.5 50 +26 +26 жарко 1008.8 937.0 +34.6 0.0
штиль 0 10 км 3/3 1000 м
[Sc diur, vesp]
+20.0 +12.0 60 +21 +21 комфорт 1008.2 935.7
ЮЗ 1 50 км 4/4 1000 м
[Sc diur, vesp]
+18.0 +12.0 68 +19 +19 тепло 1008.8 935.7
ЮЗ 1 50 км 4/3 1000 м
[Sc diur, vesp Ac lent]
+26.8 +11.2 38 +28 +33 жарко 1006.8 935.9
ЮЗ 2 50 км 3/3 1000 м
[Cu med, cong]
+31.4 +11.3 29 +32 +44 жарко 1005.3 935.6 +17.4 0.0
З 6 50 км 4/4 1000 м
[Cu med, cong]
+33.6 +9.6 23 +33 +37 жарко 1003.6 934.4
З 6 50 км 4/4 1000 м
[Cu med, cong]
+33.7 +9.8 23 +33 +34 жарко 1002.3 933.2
СЗ 4 50 км 4/3 1000 м
[Sc diur, vesp Ci sp]
+30.3 +9.6 28 +30 +30 жарко 1003.0 933.1 +34.8
З 2 10 км ясно +25.6 +12.2 43 +27 +27 жарко 1004.3 933.3 +34.8
З 2 10 км ясно +21.5 +9.4 46 +23 +23 комфорт 1004.5 932.5
ЮЗ 1 50 км ясно +17.6 +11.4 67 +19 +19 по сезону 1006.1 933.1
З 1 50 км ясно +24.0 +13.7 53 +26 +35 жарко 1004.8 935.5
СВ 2 50 км ясно +28.1 +13.1 40 +30 +48 жарко 1002.8 932.5 +17.4
С 5 50 км ясно +33.0 +10.0 24 +32 +41 жарко 1000.1 931.0
СВ 2 50 км ясно +33.5 +8.4 21 +32 +37 жарко 998.9 929.9
С 3 50 км 3/0
[Ac lent]
+30.0 +8.9 27 +29 +29 жарко 999.5 929.8 +34.8
С 2 10 км 4/0
[Ac lent]
+23.8 +5.7 31 +24 +24 комфорт 1000.9 929.6 +34.8
штиль 0 10 км 8/0
[Ac lent]
+20.6 +6.6 40 +21 +21 комфорт 1001.8 929.7
штиль 0 50 км 10/0
[Ci fib]
+19.9 +8.1 46 +21 +21 комфорт 1001.9 929.7
ЮЗ 2 50 км 3/0
[Ci fib]
+26.3 +5.9 27 +26 +32 жарко 1000.6 929.9
З 2 50 км ясно +31.6 +7.5 22 +30 +48 жарко 998.8 929.5 +19.0
СЗ 4 50 км 4/4 1000 м
[Sc diur, vesp]
+34.8 +9.6 21 +33 +40 жарко 997.4 928.9
ЮЗ 7 50 км {гроза} 10/10 600 м
[Cb cap]
+23.3 +14.4 57 +27 +27 душно 1003.0 931.7
Ю 7 20 км 10/10 600 м
[Cb cap]
+23.1 +14.6 59 +27 +27 душно 1002.2 930.9 +35.4
штиль 0 10 км 10/10 600 м
[Cb cap]
+23.3 +14.4 57 +27 +27 душно 1002.5 931.2 +35.4
штиль 0 10 км 6/6 1000 м
[Sc diur, vesp]
+23.0 +16.1 65 +27 +27 душно 1002.0 930.7
штиль 0 20 км 9/9 600 м
[Cb cap]
+22.8 +13.8 57 +26 +26 жарко 1001.9 930.5
штиль 0 50 км 3/3 1000 м
[Sc diur, vesp]
+27.3 +12.9 41 +29 +36 жарко 1002.2 931.8
СВ 2 50 км ясно +33.1 +10.9 26 +33 +51 опасность солнечного удара 1000.5 931.5 +19.5
С 4 50 км ясно +34.8 +8.8 20 +33 +45 жарко 999.4 930.7
С 3 50 км ясно +35.9 +9.4 20 +35 +39 очень жарко 998.5 930.1
штиль 0 50 км ясно +30.5 +8.3 25 +30 +30 жарко 999.9 930.3 +36.4
штиль 0 10 км ясно +24.6 +7.2 33 +25 +25 комфорт 1001.9 930.8 +36.4
штиль 0 10 км ясно +22.0 +11.0 50 +24 +24 комфорт 1001.9 930.3
Ю 3 50 км 3/0
[Ci sp]
+23.3 +10.9 46 +26 +26 жарко 1002.6 931.2
Местоположение метеостанции Тараз (Жамбылская область, Казахстан): широта 42.85 долгота 71.38 высота над уровнем моря 655 м.
В архиве по умолчанию представлена погода в Таразе за последнюю неделю. Архивные данные за месяц целиком и за предыдущие месяцы, начиная с января 2011 года, Вы можете получить, выбрав интересующий диапазон дат из раскрывающегося списка и нажав кнопку "Найти!".
*Определитесь, кто Вы:
Внимание! Время в таблицах - всемирное. Для получения местного времени необходимо прибавить поправку, которая равна 6 ч.
Некоторые строки с данными для отдельных станций могут быть выделены курсивом. Это означает, что фактические данные отсутствуют по различным причинам, а приведенные значения являются расчетными модельными данными для данного пункта наблюдений.
Смотрите также архив погоды в соседних городах и на ближайших метеорологических станциях:
Партнеры нашего сайта:      
Пояснения к столбцам:
  • Ветер - указаны скорость ветра в м/с - средняя за 10 мин, порывы в срок и между сроками (в фигурных скобках) и направление, откуда дует ветер: С - северный,
  • СВ - северо-восточный, В - восточный, ЮВ - юго-восточный, Ю - южный, ЮЗ - юго-западный, З - западный, СЗ - северо-западный.
  • Видимость - горизонтальная дальность видимости в метрах или километрах. При видимости от 1 до 10 км при отсутствии осадков обычно наблюдается дымка, при ухудшении видимости до 1 км и менее - туман. В сухую погоду видимость может ухудшаться дымом, пылью или мглою.
  • Явления - указаны атмосферные явления, наблюдавшиеся в срок или в последний час перед сроком; фигурными скобками обозначены явления, наблюдавшиеся между сроками (за 1-3 часа до срока); квадратными скобками обозначены град или гололедные отложения с указанием их диаметра в мм.
  • Облачность - указаны через наклонную черту общая и нижняя облачность в баллах и высота нижней границы облаков в метрах; квадратными скобками обозначены формы облаков: Ci - перистые, Cs - перисто-слоистые, Cc - перисто-кучевые, Ac - высококучевые, As - высокослоистые, Sc - слоисто-кучевые, Ns - слоисто-дождевые, Cu - кучевые, Cb - кучево-дождевые. Подробнее классификацию облаков см. в Атласе облаков (PDF).
  • T - Температура воздуха - температура, измеренная на высоте 2 м над землей.
  • Td - Температура точки росы - температура, при понижении до которой содержащийся в воздухе водяной пар достигнет насыщения.
  • f - Относительная влажность воздуха - влажноcть воздуха, измеренная на высоте 2 м над землей.
  • Te - Эффективная температура - температура, которую ощущает одетый по сезону человек в тени. Характеристика душности погоды. При расчете учитывается влияние влажности воздуха и скорости ветра на теплоощущения человека.
  • Tes - Эффективная температура на солнце - температура, которую ощущает человек, с поправкой на солнечный нагрев. Характеристика знойности погоды. Зависит от высоты солнца над горизонтом, облачности и скорости ветра. Ночью, в пасмурную погоду, а также при ветре 12 м/с и более поправка равна нулю.
  • P - Атмосферное давление - приведенное к уровню моря атмосферное давление.
  • Po - Атмосферное давление - измеренное на уровне метеостанции атмосферное давление.
  • Tmin - Минимальная температура - минимум температуры воздуха на высоте 2 м над землей.
  • Tmax - Максимальная температура - максимум температуры воздуха на высоте 2 м над землей.
  • R - Количество осадков - Количество выпавших осадков за период времени, мм. При наведении курсора мыши на число - период времени, за который выпало указанное количество осадков.
  • R24 - Количество осадков - Количество выпавших осадков за 24 часа, мм.
  • S - Снежный покров - Высота снежного покрова, см. При наведении курсора мыши на число - состояние снежного покрова и степень покрытия местности в баллах.